Location: Gisborne
(38.6530°S, 178.0040°E)
Time: 23:26:25
(UTC+13:00)

ARGOS - Pass Details

Date: 24 January 2019
Orbit: 821 x 834 km, 98.5° (Epoch: 22 February)

Event Time Altitude Azimuth Distance (km) Brightness Sun altitude
Rises 21:31:54 0° 154° (SSE) 3,389 6.5 -11.3°
Reaches altitude 10° 21:34:40 10° 142° (SE) 2,447 5.6 -11.7°
Maximum altitude 21:39:10 26° 85° (E) 1,565 4.1 -12.4°
Enters shadow 21:42:01 17° 42° (NE) 1,956 4.5 -12.9°
